{"data":{"norad_id":57452,"intl_designator":"2023-106A","name":"YAOGAN-36 05A","alt_names":[],"object_type":"PAYLOAD","status":"ACTIVE","operator":null,"country":"PRC","launch_date":"2023-07-26","launch_site_code":"XICLF","launch_vehicle":null,"mission":null,"orbit_class":"UNKNOWN","rcs_meters":null,"size_class":null,"mass_kg":null,"dimensions":null,"purposes":[],"wikipedia_slug":null,"has_3d_model":false,"image_url":null,"decayed_at":null,"tle_current":{"epoch":"2026-05-25T04:49:09.788736Z","epoch_age_seconds":64625,"freshness":"FRESH","line1":"1 57452U 23106A   26145.20080774  .00007589  00000+0  31505-3 0  9996","line2":"2 57452  35.0041 202.2358 0002010 210.2709 149.7890 15.23129385157644","mean_motion":15.23129385,"eccentricity":0.000201,"inclination_deg":35.0041,"raan_deg":202.2358,"arg_perigee_deg":210.2709,"mean_anomaly_deg":149.789,"bstar":0.00031505,"rev_number":15764,"period_min":94.542198068091,"perigee_km":495.02649516679,"apogee_km":497.79006236885,"semimajor_km":6874.5452787678,"source":"CELESTRAK","updated_at":"2026-05-25T13:38:00.073073Z"}}}